Time,TemperatureF,DewpointF,PressureIn,WindDirection,WindDirectionDegrees,WindSpeedMPH,WindSpeedGustMPH,Humidity,HourlyPrecipIn,Conditions,Clouds,dailyrainin,SolarRadiationWatts/m^2,SoftwareType,DateUTC
2013-03-03 00:01:00,47.0,21.0,-100.00,West,278,35.0,54.0,36,0.00,,,0.00,0.000000,,2013-03-03 08:01:00,
2013-03-03 00:11:00,47.0,21.0,-100.00,West,278,35.0,54.0,36,0.00,,,0.00,0.000000,,2013-03-03 08:11:00,
2013-03-03 00:21:00,47.0,21.0,-100.00,West,278,35.0,54.0,36,0.00,,,0.00,0.000000,,2013-03-03 08:21:00,
2013-03-03 00:54:00,46.0,24.0,-100.00,West,273,35.0,53.0,41,0.00,,,0.00,0.000000,,2013-03-03 08:54:00,
2013-03-03 01:01:00,46.0,24.0,-100.00,West,273,35.0,53.0,41,0.00,,,0.00,0.000000,,2013-03-03 09:01:00,
2013-03-03 01:11:00,46.0,24.0,-100.00,West,273,35.0,53.0,41,0.00,,,0.00,0.000000,,2013-03-03 09:11:00,
2013-03-03 01:21:00,46.0,24.0,-100.00,West,273,35.0,53.0,41,0.00,,,0.00,0.000000,,2013-03-03 09:21:00,
2013-03-03 01:52:00,44.0,19.0,-100.00,WNW,283,36.0,63.0,37,0.00,,,0.00,0.000000,,2013-03-03 09:52:00,
2013-03-03 02:01:00,44.0,19.0,-100.00,WNW,283,36.0,63.0,37,0.00,,,0.00,0.000000,,2013-03-03 10:01:00,
2013-03-03 02:11:00,44.0,19.0,-100.00,WNW,283,36.0,63.0,37,0.00,,,0.00,0.000000,,2013-03-03 10:11:00,
2013-03-03 02:21:00,44.0,19.0,-100.00,WNW,283,36.0,63.0,37,0.00,,,0.00,0.000000,,2013-03-03 10:21:00,
2013-03-03 02:52:00,45.0,19.0,-100.00,WNW,289,31.0,56.0,35,0.00,,,0.00,0.000000,,2013-03-03 10:52:00,
2013-03-03 03:01:00,45.0,19.0,-100.00,WNW,289,31.0,56.0,35,0.00,,,0.00,0.000000,,2013-03-03 11:01:00,
2013-03-03 03:11:00,45.0,19.0,-100.00,WNW,289,31.0,56.0,35,0.00,,,0.00,0.000000,,2013-03-03 11:11:00,
2013-03-03 03:21:00,45.0,19.0,-100.00,WNW,289,31.0,56.0,35,0.00,,,0.00,0.000000,,2013-03-03 11:21:00,
2013-03-03 03:52:00,44.0,23.0,-100.00,WNW,282,27.0,47.0,43,0.00,,,0.00,0.000000,,2013-03-03 11:52:00,
2013-03-03 04:01:00,44.0,23.0,-100.00,WNW,282,27.0,47.0,43,0.00,,,0.00,0.000000,,2013-03-03 12:01:00,
2013-03-03 04:11:00,44.0,23.0,-100.00,WNW,282,27.0,47.0,43,0.00,,,0.00,0.000000,,2013-03-03 12:11:00,
2013-03-03 04:21:00,44.0,23.0,-100.00,WNW,282,27.0,47.0,43,0.00,,,0.00,0.000000,,2013-03-03 12:21:00,
2013-03-03 04:53:00,42.0,22.0,-100.00,WNW,282,24.0,40.0,45,0.00,,,0.00,0.000000,,2013-03-03 12:53:00,
2013-03-03 05:01:00,42.0,22.0,-100.00,WNW,282,24.0,40.0,45,0.00,,,0.00,0.000000,,2013-03-03 13:01:00,
2013-03-03 05:11:00,42.0,22.0,-100.00,WNW,282,24.0,40.0,45,0.00,,,0.00,0.000000,,2013-03-03 13:11:00,
2013-03-03 05:21:00,42.0,22.0,-100.00,WNW,282,24.0,40.0,45,0.00,,,0.00,0.000000,,2013-03-03 13:21:00,
2013-03-03 05:52:00,42.0,25.0,-100.00,WNW,285,30.0,42.0,50,0.00,,,-99.99,0.000000,,2013-03-03 13:52:00,
2013-03-03 06:01:00,42.0,25.0,-100.00,WNW,285,30.0,42.0,50,0.00,,,-99.99,0.000000,,2013-03-03 14:01:00,
2013-03-03 06:11:00,42.0,25.0,-100.00,WNW,285,30.0,42.0,50,0.00,,,-99.99,0.000000,,2013-03-03 14:11:00,
2013-03-03 06:21:00,42.0,25.0,-100.00,WNW,285,30.0,42.0,50,0.00,,,-99.99,0.000000,,2013-03-03 14:21:00,
2013-03-03 06:52:00,41.0,23.0,-100.00,WNW,283,25.0,42.0,49,0.00,,,0.00,0.000000,,2013-03-03 14:52:00,
2013-03-03 07:01:00,41.0,23.0,-100.00,WNW,283,25.0,42.0,49,0.00,,,0.00,0.000000,,2013-03-03 15:01:00,
2013-03-03 07:11:00,41.0,23.0,-100.00,WNW,283,25.0,42.0,49,0.00,,,0.00,0.000000,,2013-03-03 15:11:00,
2013-03-03 07:22:00,41.0,23.0,-100.00,WNW,283,25.0,42.0,49,0.00,,,0.00,0.000000,,2013-03-03 15:22:00,
2013-03-03 07:52:00,42.0,24.0,-100.00,WNW,283,30.0,52.0,49,0.00,,,0.00,127.000000,,2013-03-03 15:52:00,
2013-03-03 08:01:00,42.0,24.0,-100.00,WNW,283,30.0,52.0,49,0.00,,,0.00,127.000000,,2013-03-03 16:01:00,
2013-03-03 08:12:00,42.0,24.0,-100.00,WNW,283,30.0,52.0,49,0.00,,,0.00,127.000000,,2013-03-03 16:12:00,
2013-03-03 08:21:00,42.0,24.0,-100.00,WNW,283,30.0,52.0,49,0.00,,,0.00,127.000000,,2013-03-03 16:21:00,
2013-03-03 08:52:00,44.0,27.0,-100.00,WNW,282,25.0,39.0,50,0.00,,,0.00,369.000000,,2013-03-03 16:52:00,
2013-03-03 09:01:00,44.0,27.0,-100.00,WNW,282,25.0,39.0,50,0.00,,,0.00,369.000000,,2013-03-03 17:01:00,
2013-03-03 09:11:00,44.0,27.0,-100.00,WNW,282,25.0,39.0,50,0.00,,,0.00,369.000000,,2013-03-03 17:11:00,
2013-03-03 09:22:00,44.0,27.0,-100.00,WNW,282,25.0,39.0,50,0.00,,,0.00,369.000000,,2013-03-03 17:22:00,
2013-03-03 09:52:00,44.0,27.0,-100.00,West,281,26.0,47.0,50,0.00,,,0.00,631.000000,,2013-03-03 17:52:00,
2013-03-03 10:01:00,44.0,27.0,-100.00,West,281,26.0,47.0,50,0.00,,,0.00,631.000000,,2013-03-03 18:01:00,
2013-03-03 10:11:00,44.0,27.0,-100.00,West,281,26.0,47.0,50,0.00,,,0.00,631.000000,,2013-03-03 18:11:00,
2013-03-03 10:21:00,44.0,27.0,-100.00,West,281,26.0,47.0,50,0.00,,,0.00,631.000000,,2013-03-03 18:21:00,
2013-03-03 10:52:00,46.0,29.0,-100.00,West,272,20.0,51.0,52,0.00,,,0.00,742.000000,,2013-03-03 18:52:00,
2013-03-03 11:01:00,46.0,29.0,-100.00,West,272,20.0,51.0,52,0.00,,,0.00,742.000000,,2013-03-03 19:01:00,
2013-03-03 11:11:00,46.0,29.0,-100.00,West,272,20.0,51.0,52,0.00,,,0.00,742.000000,,2013-03-03 19:11:00,
2013-03-03 11:21:00,46.0,29.0,-100.00,West,272,20.0,51.0,52,0.00,,,0.00,742.000000,,2013-03-03 19:21:00,
2013-03-03 11:52:00,46.0,30.0,-100.00,West,276,19.0,40.0,53,0.00,,,0.00,700.000000,,2013-03-03 19:52:00,
2013-03-03 12:01:00,46.0,30.0,-100.00,West,276,19.0,40.0,53,0.00,,,0.00,700.000000,,2013-03-03 20:01:00,
2013-03-03 12:11:00,46.0,30.0,-100.00,West,276,19.0,40.0,53,0.00,,,0.00,700.000000,,2013-03-03 20:11:00,
2013-03-03 12:21:00,46.0,30.0,-100.00,West,276,19.0,40.0,53,0.00,,,0.00,700.000000,,2013-03-03 20:21:00,
2013-03-03 12:52:00,47.0,33.0,-100.00,West,272,23.0,41.0,57,0.00,,,0.00,720.000000,,2013-03-03 20:52:00,
2013-03-03 13:01:00,47.0,33.0,-100.00,West,272,23.0,41.0,57,0.00,,,0.00,720.000000,,2013-03-03 21:01:00,
2013-03-03 13:11:00,47.0,33.0,-100.00,West,272,23.0,41.0,57,0.00,,,0.00,720.000000,,2013-03-03 21:11:00,
2013-03-03 13:21:00,47.0,33.0,-100.00,West,272,23.0,41.0,57,0.00,,,0.00,720.000000,,2013-03-03 21:21:00,
2013-03-03 13:52:00,46.0,33.0,-100.00,West,274,27.0,49.0,60,0.00,,,0.00,913.000000,,2013-03-03 21:52:00,
2013-03-03 14:01:00,46.0,33.0,-100.00,West,274,27.0,49.0,60,0.00,,,0.00,913.000000,,2013-03-03 22:01:00,
2013-03-03 14:11:00,46.0,33.0,-100.00,West,274,27.0,49.0,60,0.00,,,0.00,913.000000,,2013-03-03 22:11:00,
2013-03-03 14:21:00,46.0,33.0,-100.00,West,274,27.0,49.0,60,0.00,,,0.00,913.000000,,2013-03-03 22:21:00,
2013-03-03 14:52:00,44.0,33.0,-100.00,East,97,26.0,52.0,64,0.00,,,0.00,536.000000,,2013-03-03 22:52:00,
2013-03-03 15:01:00,44.0,33.0,-100.00,East,97,26.0,52.0,64,0.00,,,0.00,536.000000,,2013-03-03 23:01:00,
2013-03-03 15:11:00,44.0,33.0,-100.00,East,97,26.0,52.0,64,0.00,,,0.00,536.000000,,2013-03-03 23:11:00,
2013-03-03 15:21:00,44.0,33.0,-100.00,East,97,26.0,52.0,64,0.00,,,0.00,536.000000,,2013-03-03 23:21:00,
2013-03-03 15:52:00,44.0,33.0,-100.00,West,275,25.0,54.0,64,0.00,,,0.00,512.000000,,2013-03-03 23:52:00,
2013-03-03 16:01:00,44.0,33.0,-100.00,West,275,25.0,54.0,64,0.00,,,0.00,512.000000,,2013-03-04 00:01:00,
2013-03-03 16:11:00,44.0,33.0,-100.00,West,275,25.0,54.0,64,0.00,,,0.00,512.000000,,2013-03-04 00:11:00,
2013-03-03 16:21:00,44.0,33.0,-100.00,West,275,25.0,54.0,64,0.00,,,0.00,512.000000,,2013-03-04 00:21:00,
2013-03-03 16:52:00,42.0,29.0,-100.00,WNW,282,38.0,57.0,59,0.00,,,0.00,344.000000,,2013-03-04 00:52:00,
2013-03-03 17:01:00,42.0,29.0,-100.00,WNW,282,38.0,57.0,59,0.00,,,0.00,344.000000,,2013-03-04 01:01:00,
2013-03-03 17:11:00,42.0,29.0,-100.00,WNW,282,38.0,57.0,59,0.00,,,0.00,344.000000,,2013-03-04 01:11:00,
2013-03-03 17:21:00,42.0,29.0,-100.00,WNW,282,38.0,57.0,59,0.00,,,0.00,344.000000,,2013-03-04 01:21:00,
2013-03-03 17:52:00,40.0,30.0,-100.00,West,281,34.0,51.0,67,0.00,,,0.00,115.000000,,2013-03-04 01:52:00,
2013-03-03 18:01:00,40.0,30.0,-100.00,West,281,34.0,51.0,67,0.00,,,0.00,115.000000,,2013-03-04 02:01:00,
2013-03-03 18:11:00,40.0,30.0,-100.00,West,281,34.0,51.0,67,0.00,,,0.00,115.000000,,2013-03-04 02:11:00,
2013-03-03 18:22:00,40.0,30.0,-100.00,West,281,34.0,51.0,67,0.00,,,0.00,115.000000,,2013-03-04 02:22:00,
2013-03-03 18:52:00,38.0,30.0,-100.00,West,268,27.0,62.0,72,0.00,,,0.00,7.000000,,2013-03-04 02:52:00,
2013-03-03 19:01:00,38.0,30.0,-100.00,West,268,27.0,62.0,72,0.00,,,0.00,7.000000,,2013-03-04 03:01:00,
2013-03-03 19:11:00,38.0,30.0,-100.00,West,268,27.0,62.0,72,0.00,,,0.00,7.000000,,2013-03-04 03:11:00,
2013-03-03 19:21:00,38.0,30.0,-100.00,West,268,27.0,62.0,72,0.00,,,0.00,7.000000,,2013-03-04 03:21:00,
2013-03-03 19:52:00,37.0,30.0,-100.00,WNW,282,32.0,52.0,77,0.00,,,0.00,0.000000,,2013-03-04 03:52:00,
2013-03-03 20:01:00,37.0,30.0,-100.00,WNW,282,32.0,52.0,77,0.00,,,0.00,0.000000,,2013-03-04 04:01:00,
2013-03-03 20:11:00,37.0,30.0,-100.00,WNW,282,32.0,52.0,77,0.00,,,0.00,0.000000,,2013-03-04 04:11:00,
2013-03-03 20:22:00,37.0,30.0,-100.00,WNW,282,32.0,52.0,77,0.00,,,0.00,0.000000,,2013-03-04 04:22:00,
2013-03-03 20:52:00,37.0,29.0,-100.00,West,281,28.0,51.0,72,0.00,,,0.00,0.000000,,2013-03-04 04:52:00,
2013-03-03 21:01:00,37.0,29.0,-100.00,West,281,28.0,51.0,72,0.00,,,0.00,0.000000,,2013-03-04 05:01:00,
2013-03-03 21:11:00,37.0,29.0,-100.00,West,281,28.0,51.0,72,0.00,,,0.00,0.000000,,2013-03-04 05:11:00,
2013-03-03 21:22:00,37.0,29.0,-100.00,West,281,28.0,51.0,72,0.00,,,0.00,0.000000,,2013-03-04 05:22:00,
2013-03-03 21:52:00,37.0,28.0,-100.00,NW,311,21.0,55.0,70,0.00,,,0.00,0.000000,,2013-03-04 05:52:00,
2013-03-03 22:01:00,37.0,28.0,-100.00,NW,311,21.0,55.0,70,0.00,,,0.00,0.000000,,2013-03-04 06:01:00,
2013-03-03 22:11:00,37.0,28.0,-100.00,NW,311,21.0,55.0,70,0.00,,,0.00,0.000000,,2013-03-04 06:11:00,
2013-03-03 22:21:00,37.0,28.0,-100.00,NW,311,21.0,55.0,70,0.00,,,0.00,0.000000,,2013-03-04 06:21:00,
2013-03-03 22:52:00,38.0,31.0,-100.00,WNW,283,22.0,45.0,75,0.00,,,0.00,0.000000,,2013-03-04 06:52:00,
2013-03-03 23:01:00,38.0,31.0,-100.00,WNW,283,22.0,45.0,75,0.00,,,0.00,0.000000,,2013-03-04 07:01:00,
2013-03-03 23:11:00,38.0,31.0,-100.00,WNW,283,22.0,45.0,75,0.00,,,0.00,0.000000,,2013-03-04 07:11:00,
2013-03-03 23:21:00,38.0,31.0,-100.00,WNW,283,22.0,45.0,75,0.00,,,0.00,0.000000,,2013-03-04 07:21:00,
2013-03-03 23:52:00,35.0,29.0,-100.00,NW,309,22.0,39.0,79,0.00,,,0.00,0.000000,,2013-03-04 07:52:00,